Myrtle Beach, SC

2:39 AM EDT on May 30, 2017 (GMT -0400)
Myrtle Beach International

Weather History for KMYR - January, 2013

Change the Weather History Date:

Friday, January 11, 2013

  Actual Average Record
Temperature  
Mean Temperature 63 °F -  
Max Temperature 73 °F 54 °F 80 °F (1949)
Min Temperature 53 °F 34 °F 18 °F (2004)
Degree Days  
Heating Degree Days 2    
Growing Degree Days 13 (Base 50)    
Moisture  
Dew Point 56 °F    
Average Humidity 89    
Maximum Humidity 100    
Minimum Humidity 72    
Precipitation  
Precipitation 0.00 in - - ()
Sea Level Pressure  
Sea Level Pressure 30.28 in    
Wind  
Wind Speed 10 mph (East)    
Max Wind Speed 15 mph    
Max Gust Speed 21 mph    
Visibility 9 miles    
Events Rain    
Averages and records for this station are not official NWS values.
T = Trace of Precipitation, MM = Missing Value Source: NWS Daily Summary

Daily Weather History Graph

Daily Weather History Graph

Search for Another Location

Airport or City:

Trip Planner

Search our weather history database for the weather conditions in past years. The results will help you decide how hot, cold, wet, or windy it might be!

Date:

Astronomy

Jan. 11, 2013 Rise Set
Actual Time 7:20 AM EST 5:26 PM EST
Civil Twilight 6:53 AM EST 5:54 PM EST
Nautical Twilight 6:22 AM EST 6:24 PM EST
Astronomical Twilight 5:52 AM EST 6:54 PM EST
Moon 6:54 AM EST (1/11) 5:40 PM EST (1/11)
Length of Visible Light 11h 00m
Length of Day
10h 06m
Waning Crescent, 0% of the Moon is Illuminated
Jan 11
Waning Crescent
Jan 11
New
Jan 18
First Quarter
Jan 26
Full
Feb 3
Last Quarter

Hourly Weather History & Observations

Time (EST) Temp. Dew Point Humidity Pressure Visibility Wind Dir Wind Speed Gust Speed Precip Events Conditions
12:15 AM 55.4 °F 46.4 °F 72% 30.38 in 10.0 mi ENE 11.5 mph - N/A   Mostly Cloudy
12:35 AM 55.4 °F 46.4 °F 72% 30.38 in 10.0 mi ENE 13.8 mph 18.4 mph N/A   Overcast
12:55 AM 55.4 °F 48.2 °F 77% 30.37 in 10.0 mi ENE 12.7 mph - N/A   Overcast
1:15 AM 55.4 °F 48.2 °F 77% 30.36 in 10.0 mi ENE 13.8 mph 18.4 mph N/A   Overcast
1:35 AM 55.4 °F 51.8 °F 88% 30.36 in 10.0 mi ENE 15.0 mph 18.4 mph N/A   Overcast
1:55 AM 55.4 °F 50.0 °F 82% 30.35 in 10.0 mi ENE 15.0 mph - N/A   Overcast
2:15 AM 55.4 °F 50.0 °F 82% 30.35 in 10.0 mi East 12.7 mph - N/A   Overcast
2:35 AM 55.4 °F 51.8 °F 88% 30.34 in 10.0 mi ENE 15.0 mph 18.4 mph N/A   Overcast
2:55 AM 53.6 °F 51.8 °F 94% 30.33 in 10.0 mi ENE 13.8 mph 20.7 mph N/A   Overcast
3:15 AM 53.6 °F 51.8 °F 94% 30.33 in 10.0 mi ENE 12.7 mph 19.6 mph N/A   Overcast
3:35 AM 53.6 °F 51.8 °F 94% 30.33 in 10.0 mi ENE 10.4 mph - N/A   Overcast
3:55 AM 53.6 °F 51.8 °F 94% 30.32 in 10.0 mi ENE 8.1 mph - N/A   Overcast
4:15 AM 53.6 °F 51.8 °F 94% 30.31 in 10.0 mi ENE 9.2 mph - N/A   Overcast
4:35 AM 53.6 °F 51.8 °F 94% 30.31 in 10.0 mi ENE 6.9 mph - N/A   Overcast
4:55 AM 55.4 °F 51.8 °F 88% 30.31 in 10.0 mi ENE 8.1 mph - N/A   Overcast
5:15 AM 55.4 °F 53.6 °F 94% 30.30 in 10.0 mi NE 6.9 mph - N/A   Overcast
5:35 AM 55.4 °F 53.6 °F 94% 30.30 in 5.0 mi ENE 5.8 mph - N/A   Overcast
5:50 AM 55.4 °F 53.6 °F 94% 30.30 in 5.0 mi NE 9.2 mph - N/A   Drizzle
6:47 AM 55.4 °F 51.8 °F 88% 30.31 in 7.0 mi NNW 6.9 mph - N/A   Mostly Cloudy
7:47 AM 55.4 °F 55.4 °F 100% 30.30 in 7.0 mi NNE 6.9 mph - N/A   Mostly Cloudy
8:45 AM 55.4 °F 53.6 °F 94% 30.31 in 7.0 mi North 6.9 mph - N/A Rain Light Rain
9:45 AM 59.0 °F 59.0 °F 100% 30.31 in 9.0 mi NNE 5.8 mph - N/A   Overcast
10:45 AM 64.4 °F 62.6 °F 94% 30.30 in 10.0 mi Calm Calm - N/A   Scattered Clouds
11:45 AM 69.8 °F 66.2 °F 88% 30.26 in 10.0 mi South 9.2 mph - N/A   Clear
12:45 PM 73.4 °F 66.2 °F 78% 30.24 in 10.0 mi South 11.5 mph - N/A   Scattered Clouds
1:45 PM 71.6 °F 64.4 °F 78% 30.22 in 10.0 mi South 13.8 mph - N/A   Scattered Clouds
2:45 PM 71.6 °F 64.4 °F 78% 30.21 in 10.0 mi SSW 11.5 mph - N/A   Mostly Cloudy
3:45 PM 64.4 °F 62.6 °F 94% 30.20 in 10.0 mi South 10.4 mph - N/A   Mostly Cloudy
4:45 PM 66.2 °F 62.6 °F 88% 30.19 in 10.0 mi South 9.2 mph - N/A   Clear
5:45 PM 64.4 °F 60.8 °F 88% 30.20 in 10.0 mi SSW 9.2 mph - N/A   Clear
6:45 PM 62.6 °F 60.8 °F 94% 30.20 in 10.0 mi SSW 6.9 mph - N/A   Clear
7:50 PM 62.6 °F 60.8 °F 94% 30.20 in 8.0 mi SSW 8.1 mph - N/A   Clear
8:45 PM 62.6 °F 60.8 °F 94% 30.19 in 10.0 mi SSW 10.4 mph - N/A   Clear
9:50 PM 62.6 °F 60.8 °F 94% 30.19 in 10.0 mi SW 6.9 mph - N/A   Clear
10:55 PM 62.6 °F 62.6 °F 100% 30.20 in 10.0 mi SSW 4.6 mph - N/A   Scattered Clouds
11:15 PM 62.6 °F 60.8 °F 94% 30.20 in 10.0 mi Calm Calm - N/A   Mostly Cloudy
11:35 PM 62.6 °F 60.8 °F 94% 30.20 in 8.0 mi Calm Calm - N/A   Partly Cloudy
11:55 PM 60.8 °F 59.0 °F 94% 30.20 in 6.0 mi SW 3.5 mph - N/A   Partly Cloudy